Montreal Mirabel, Quebec

7:20 AM EST on December 11, 2017 (GMT -0500)
Montreal Mirabel

Weather History for CYMX - October, 2011

Change the Weather History Date:

Thursday, October 27, 2011

  Actual Average Record
Temperature  
Mean Temperature 36 °F -  
Max Temperature 41 °F 46 °F 66 °F (2010)
Min Temperature 32 °F 31 °F 23 °F (2015)
Degree Days  
Heating Degree Days 28    
Moisture  
Dew Point 22 °F    
Average Humidity 55    
Maximum Humidity 75    
Minimum Humidity 42    
Precipitation  
Precipitation 0.00 in - - ()
Sea Level Pressure  
Sea Level Pressure 29.90 in    
Wind  
Wind Speed 4 mph ()    
Max Wind Speed 13 mph    
Max Gust Speed -    
Averages and records for this station are not official NWS values.
T = Trace of Precipitation, MM = Missing Value Source: Averaged Metar Reports

Daily Weather History Graph

Daily Weather History Graph

Search for Another Location

Airport or City:

Trip Planner

Search our weather history database for the weather conditions in past years. The results will help you decide how hot, cold, wet, or windy it might be!

Date:

Astronomy

Oct. 27, 2011 Rise Set
Actual Time 7:28 AM EDT 5:50 PM EDT
Civil Twilight 6:57 AM EDT 6:21 PM EDT
Nautical Twilight 6:23 AM EDT 6:56 PM EDT
Astronomical Twilight 5:48 AM EDT 7:30 PM EDT
Moon 8:34 AM EDT (10/27) 6:10 PM EDT (10/27)
Length of Visible Light 11h 23m
Length of Day
10h 22m
New Moon, 1% of the Moon is Illuminated
Oct 27
New Moon
Nov 2
First Quarter
Nov 10
Full
Nov 18
Last Quarter
Nov 25
New

Hourly Weather History & Observations

Time (EDT) Temp. Windchill Dew Point Humidity Pressure Visibility Wind Dir Wind Speed Gust Speed Precip Events Conditions
12:00 AM 37.4 °F 33.8 °F 26.6 °F 65% 29.88 in 25.0 mi NE 4.6 mph - N/A   Overcast
1:00 AM 37.4 °F 33.8 °F 24.8 °F 60% 29.90 in 25.0 mi NE 4.6 mph - N/A   Overcast
2:00 AM 37.4 °F 34.9 °F 24.8 °F 60% 29.90 in 25.0 mi NNE 3.5 mph - N/A   Overcast
3:00 AM 37.4 °F - 24.8 °F 60% 29.89 in 25.0 mi ENE 2.3 mph - N/A   Overcast
4:00 AM 37.4 °F - 23.0 °F 56% 29.90 in 25.0 mi Calm Calm - N/A   Overcast
5:00 AM 35.6 °F 32.8 °F 24.8 °F 65% 29.90 in 25.0 mi North 3.5 mph - N/A   Overcast
6:00 AM 33.8 °F 30.8 °F 24.8 °F 70% 29.90 in 25.0 mi North 3.5 mph - N/A   Overcast
7:00 AM 32.0 °F - 24.8 °F 75% 29.90 in 25.0 mi Calm Calm - N/A   Scattered Clouds
8:00 AM 32.0 °F - 23.0 °F 69% 29.92 in 45.0 mi NNW 2.3 mph - N/A   Mostly Cloudy
9:00 AM 33.8 °F 28.6 °F 23.0 °F 65% 29.92 in 45.0 mi North 5.8 mph - N/A   Mostly Cloudy
10:00 AM 37.4 °F 30.8 °F 21.2 °F 52% 29.91 in 45.0 mi North 9.2 mph - N/A   Scattered Clouds
11:00 AM 39.2 °F 33.6 °F 19.4 °F 45% 29.90 in 45.0 mi North 8.1 mph - N/A   Mostly Cloudy
12:00 PM 39.2 °F 35.0 °F 21.2 °F 49% 29.89 in 45.0 mi North 5.8 mph - N/A   Mostly Cloudy
1:00 PM 41.0 °F 35.8 °F 19.4 °F 42% 29.88 in 25.0 mi East 8.1 mph - N/A   Mostly Cloudy
2:00 PM 41.0 °F 38.0 °F 19.4 °F 42% 29.85 in 45.0 mi North 4.6 mph - N/A   Mostly Cloudy
4:00 PM 41.0 °F - 21.2 °F 45% 29.85 in 45.0 mi North 2.3 mph - N/A   Overcast
5:00 PM 41.0 °F - 21.2 °F 45% 29.85 in 45.0 mi WNW 2.3 mph - N/A   Overcast
6:00 PM 41.0 °F - 23.0 °F 49% 29.87 in 25.0 mi North 2.3 mph - N/A   Overcast
7:00 PM 39.2 °F 31.6 °F 21.2 °F 49% 29.90 in 25.0 mi North 12.7 mph - N/A   Mostly Cloudy
8:00 PM 39.2 °F 33.0 °F 19.4 °F 45% 29.94 in 25.0 mi NNW 9.2 mph - N/A   Mostly Cloudy
9:00 PM 37.4 °F 31.4 °F 19.4 °F 48% 29.96 in 25.0 mi NNW 8.1 mph - N/A   Mostly Cloudy
10:00 PM 35.6 °F 31.7 °F 19.4 °F 52% 29.98 in 25.0 mi WNW 4.6 mph - N/A   Mostly Cloudy
11:00 PM 33.8 °F 30.8 °F 19.4 °F 56% 29.99 in 25.0 mi WSW 3.5 mph - N/A   Mostly Cloudy